FW1147 Weather Reports


Display with metric or nautical units.
time (UTC)temp
F
wind
direction
speed
MPH
gust
MPH
rain 1hr
in
rain 24hr
in
rain mn
in
humidity
%
barometer
mb
20260906203524 91 178 21.0 37.0 0.00 0.01 0.01 45 1015.1
20260906203057 91 166 23.0 32.0 0.00 0.01 0.01 46 1014.9
20260906202525 91 193 23.0 36.0 0.00 0.01 0.01 45 1015.0
20260906202026 91 183 20.0 36.0 0.00 0.01 0.01 46 1015.1
20260906201545 90 173 22.0 34.0 0.00 0.01 0.01 47 1015.1
20260906201026 90 192 23.0 34.0 0.00 0.01 0.01 48 1015.3
20260906200526 90 146 19.0 30.0 0.00 0.01 0.01 49 1015.4
20260906200050 90 184 20.0 33.0 0.00 0.01 0.01 49 1015.6
20260906195525 90 162 21.0 33.0 0.00 0.01 0.01 49 1015.7
20260906195024 90 168 19.0 31.0 0.00 0.01 0.01 49 1015.7
20260906194545 89 161 21.0 33.0 0.00 0.01 0.01 50 1015.6
20260906194025 89 182 24.0 35.0 0.00 0.01 0.01 50 1015.8
20260906193523 89 186 22.0 36.0 0.00 0.01 0.01 50 1015.9
20260906193104 89 169 24.0 36.0 0.00 0.01 0.01 50 1016.0
20260906192525 89 172 19.0 31.0 0.00 0.01 0.01 50 1016.0
20260906192026 89 194 19.0 29.0 0.00 0.01 0.01 49 1016.1
20260906191559 89 190 21.0 29.0 0.00 0.01 0.01 48 1016.2
20260906191023 90 209 19.0 33.0 0.00 0.01 0.01 48 1016.0
20260906190524 89 185 22.0 33.0 0.00 0.01 0.01 49 1016.0
20260906190046 89 210 21.0 32.0 0.00 0.01 0.01 49 1016.1
20260906185526 89 191 18.0 33.0 0.00 0.01 0.01 49 1016.1
20260906185024 89 191 22.0 33.0 0.00 0.01 0.01 49 1016.2
20260906184548 89 169 16.0 28.0 0.00 0.01 0.01 50 1016.2
20260906184024 89 186 18.0 32.0 0.00 0.01 0.01 50 1016.4
20260906183526 88 186 17.0 32.0 0.00 0.01 0.01 52 1016.4
20260906183051 87 172 17.0 28.0 0.00 0.01 0.01 52 1016.6
20260906182526 88 167 18.0 29.0 0.00 0.01 0.01 52 1016.6
20260906182025 87 170 16.0 29.0 0.00 0.01 0.01 53 1016.7
20260906181610 87 188 18.0 27.0 0.00 0.01 0.01 52 1016.8
20260906181024 87 188 15.0 27.0 0.00 0.01 0.01 54 1016.9
20260906180524 86 209 16.0 27.0 0.00 0.01 0.01 55 1017.1
20260906180048 86 192 15.0 28.0 0.00 0.01 0.01 56 1017.1
20260906175525 86 163 19.0 29.0 0.00 0.01 0.01 57 1017.1
20260906175026 86 194 18.0 29.0 0.00 0.01 0.01 57 1017.2
20260906174549 85 196 18.0 29.0 0.00 0.01 0.01 58 1017.3
20260906174029 85 155 18.0 29.0 0.00 0.01 0.01 58 1017.4
20260906173529 85 183 17.0 30.0 0.00 0.01 0.01 57 1017.5
20260906173051 84 166 17.0 30.0 0.00 0.01 0.01 57 1017.5
20260906172526 84 184 19.0 28.0 0.00 0.01 0.01 57 1017.5
20260906172025 84 163 19.0 29.0 0.00 0.01 0.01 57 1017.6
20260906171600 84 158 20.0 29.0 0.00 0.01 0.01 59 1017.7
20260906171025 84 171 20.0 30.0 0.00 0.01 0.01 59 1017.8
20260906170524 83 172 21.0 30.0 0.00 0.01 0.01 59 1018.0
20260906170055 83 147 20.0 30.0 0.00 0.01 0.01 60 1017.9
20260906165524 83 175 21.0 29.0 0.00 0.01 0.01 61 1018.0
20260906165029 82 163 19.0 28.0 0.00 0.01 0.01 62 1018.1
20260906164554 82 143 19.0 25.0 0.00 0.01 0.01 63 1018.1
20260906164023 81 148 16.0 26.0 0.00 0.01 0.01 65 1018.2
20260906163524 81 147 17.0 27.0 0.00 0.01 0.01 65 1018.3
20260906163056 81 151 19.0 28.0 0.00 0.01 0.01 66 1018.3
20260906162528 80 132 18.0 28.0 0.00 0.01 0.01 68 1018.2
20260906162024 80 120 18.0 23.0 0.00 0.01 0.01 70 1018.2
20260906161546 79 134 17.0 23.0 0.00 0.01 0.01 71 1018.3
20260906161025 79 143 17.0 23.0 0.00 0.01 0.01 72 1018.3
20260906160525 78 140 15.0 25.0 0.00 0.01 0.01 74 1018.3
20260906160045 78 123 16.0 25.0 0.00 0.01 0.01 75 1018.2
20260906155523 77 144 16.0 23.0 0.00 0.01 0.01 76 1018.1
20260906155022 77 138 17.0 23.0 0.00 0.01 0.01 77 1018.0
20260906154552 77 132 17.0 23.0 0.00 0.01 0.01 78 1018.0
20260906154027 76 125 16.0 22.0 0.00 0.01 0.01 80 1018.1
20260906153525 75 118 17.0 23.0 0.00 0.01 0.01 80 1018.1
20260906153046 75 143 16.0 23.0 0.00 0.01 0.01 82 1018.2
20260906152526 73 142 18.0 23.0 0.00 0.01 0.01 83 1018.4
20260906152024 73 129 17.0 23.0 0.00 0.01 0.01 83 1018.4
20260906151552 73 132 16.0 23.0 0.00 0.01 0.01 84 1018.5
20260906151023 73 133 16.0 23.0 0.00 0.01 0.01 85 1018.4
20260906150525 73 143 18.0 23.0 0.00 0.01 0.01 87 1018.5
20260906150052 72 146 17.0 23.0 0.00 0.01 0.01 88 1018.4
20260906145524 71 138 18.0 24.0 0.00 0.01 0.01 90 1018.4
20260906145027 71 141 19.0 24.0 0.00 0.01 0.01 92 1018.4
20260906144605 70 143 18.0 24.0 0.00 0.01 0.01 93 1018.4
20260906144024 69 134 15.0 20.0 0.00 0.01 0.01 94 1018.4
20260906143523 69 135 14.0 18.0 0.00 0.01 0.01 94 1018.4
20260906143050 69 128 12.0 16.0 0.00 0.01 0.01 95 1018.4
20260906142524 68 134 12.0 16.0 0.00 0.01 0.01 95 1018.3
20260906142025 68 129 11.0 15.0 0.00 0.01 0.01 96 1018.3
20260906141543 68 138 11.0 15.0 0.00 0.01 0.01 95 1018.3
20260906141024 67 142 11.0 15.0 0.00 0.01 0.01 95 1018.3
20260906140520 67 142 10.0 14.0 0.00 0.01 0.01 96 1018.2
20260906140049 67 127 10.0 16.0 0.00 0.01 0.01 96 1018.2
20260906135521 67 113 11.0 16.0 0.00 0.01 0.01 96 1018.1
20260906135023 66 123 11.0 16.0 0.00 0.01 0.01 95 1018.0
20260906134545 66 115 12.0 16.0 0.00 0.01 0.01 95 1017.9
20260906134024 66 115 11.0 15.0 0.00 0.01 0.01 95 1017.8
20260906133523 66 113 11.0 15.0 0.00 0.01 0.01 95 1017.8
20260906133103 66 122 11.0 14.0 0.00 0.01 0.01 95 1017.6
20260906132523 66 117 10.0 14.0 0.00 0.01 0.01 95 1017.7
20260906132021 66 121 9.0 13.0 0.00 0.01 0.01 95 1017.7
20260906131542 66 105 10.0 14.0 0.00 0.01 0.01 95 1017.6
20260906131024 65 113 10.0 14.0 0.00 0.01 0.01 95 1017.6
20260906130524 65 110 8.0 11.0 0.00 0.01 0.01 95 1017.6
20260906125523 65 107 8.0 13.0 0.00 0.01 0.01 95 1017.7
20260906125025 65 118 9.0 13.0 0.00 0.01 0.01 95 1017.7
20260906124547 65 98 8.0 13.0 0.00 0.01 0.01 95 1017.8
20260906124025 65 114 9.0 13.0 0.00 0.01 0.01 95 1017.8
20260906123523 65 111 10.0 15.0 0.00 0.01 0.01 95 1017.8
20260906123046 65 110 11.0 15.0 0.00 0.01 0.01 94 1017.7
20260906122524 65 110 9.0 14.0 0.00 0.01 0.01 94 1017.7
20260906122024 65 109 10.0 15.0 0.00 0.01 0.01 94 1017.6
20260906121551 65 113 11.0 15.0 0.00 0.01 0.01 94 1017.6
20260906121026 65 115 11.0 17.0 0.00 0.01 0.01 94 1017.5
20260906120524 65 98 12.0 19.0 0.00 0.01 0.01 94 1017.6
20260906120050 65 105 14.0 19.0 0.00 0.01 0.01 94 1017.6
20260906115525 65 115 13.0 17.0 0.00 0.01 0.01 94 1017.7
20260906115024 65 103 14.0 17.0 0.00 0.01 0.01 93 1017.8
20260906114557 65 104 11.0 15.0 0.00 0.01 0.01 93 1017.7
20260906114025 65 105 11.0 16.0 0.00 0.01 0.01 93 1017.7
20260906113524 65 111 12.0 16.0 0.00 0.01 0.01 93 1017.7
20260906113047 65 105 11.0 16.0 0.00 0.01 0.01 93 1017.7
20260906112523 64 103 11.0 18.0 0.00 0.01 0.01 92 1017.8
20260906112027 64 88 14.0 19.0 0.00 0.01 0.01 92 1017.7
20260906111551 64 95 12.0 19.0 0.00 0.01 0.01 92 1017.7
20260906111024 65 91 14.0 18.0 0.00 0.01 0.01 92 1017.7
20260906110524 65 108 10.0 13.0 0.00 0.01 0.01 92 1017.7
20260906110045 65 100 9.0 13.0 0.00 0.01 0.01 92 1017.6
20260906105523 65 82 9.0 13.0 0.00 0.01 0.01 91 1017.6
20260906105025 65 77 9.0 13.0 0.00 0.01 0.01 91 1017.6
20260906104550 65 81 10.0 13.0 0.00 0.01 0.01 91 1017.5
20260906104023 65 87 9.0 14.0 0.00 0.01 0.01 91 1017.5
20260906103525 65 87 11.0 14.0 0.00 0.01 0.01 91 1017.5
20260906103049 65 85 9.0 13.0 0.00 0.01 0.01 91 1017.5
20260906102524 66 80 10.0 12.0 0.00 0.01 0.01 90 1017.5
20260906102024 66 55 7.0 12.0 0.00 0.01 0.01 90 1017.5
20260906101547 66 80 8.0 13.0 0.00 0.01 0.01 90 1017.5
20260906101024 66 71 10.0 13.0 0.00 0.01 0.01 90 1017.6
20260906100524 66 69 8.0 12.0 0.00 0.01 0.01 89 1017.5
20260906100044 66 67 5.0 10.0 0.00 0.01 0.01 89 1017.3
20260906095526 66 65 8.0 10.0 0.00 0.01 0.01 89 1017.3
20260906095024 66 72 8.0 10.0 0.00 0.01 0.01 89 1017.2
20260906094607 66 60 7.0 10.0 0.00 0.01 0.01 88 1017.3
20260906094030 66 71 7.0 10.0 0.00 0.01 0.01 88 1017.3
20260906093523 66 67 5.0 10.0 0.00 0.01 0.01 87 1017.4
20260906093119 66 61 7.0 13.0 0.01 0.01 0.01 87 1017.4
20260906092524 66 57 7.0 13.0 0.01 0.01 0.01 87 1017.4
20260906092026 66 38 7.0 11.0 0.01 0.01 0.01 86 1017.4
20260906091546 67 60 8.0 12.0 0.01 0.01 0.01 86 1017.5
20260906091025 67 55 8.0 12.0 0.01 0.01 0.01 85 1017.5
20260906090524 67 61 10.0 13.0 0.01 0.01 0.01 85 1017.5
20260906090046 68 49 10.0 14.0 0.01 0.01 0.01 84 1017.5
20260906085529 68 62 10.0 14.0 0.01 0.01 0.01 83 1017.3
20260906085025 69 32 9.0 13.0 0.01 0.01 0.01 82 1017.3
20260906084552 69 53 5.0 12.0 0.01 0.01 0.01 81 1017.3
20260906084025 69 18 6.0 15.0 0.01 0.01 0.01 81 1017.4
20260906083525 70 57 5.0 15.0 0.01 0.01 0.01 80 1017.3
20260906083049 71 14 6.0 15.0 0.00 0.00 0.00 78 1017.3
20260906082522 71 28 5.0 19.0 0.00 0.00 0.00 77 1017.3
20260906082033 72 39 10.0 19.0 0.00 0.00 0.00 75 1017.2
20260906081545 74 346 9.0 19.0 0.00 0.00 0.00 74 1017.4
20260906081024 74 352 1.0 21.0 0.00 0.00 0.00 74 1017.2
20260906080525 73 349 3.0 21.0 0.00 0.00 0.00 75 1017.2
20260906080045 73 277 10.0 21.0 0.00 0.00 0.00 77 1017.3
20260906075523 73 346 9.0 14.0 0.00 0.00 0.00 77 1017.3
20260906075024 73 332 2.0 10.0 0.00 0.00 0.00 75 1017.0
20260906074556 73 190 5.0 11.0 0.00 0.00 0.00 75 1016.5
20260906074024 73 165 7.0 15.0 0.00 0.00 0.00 75 1016.3
20260906073525 73 163 8.0 15.0 0.00 0.00 0.00 75 1016.0
20260906073050 73 161 8.0 15.0 0.00 0.00 0.00 75 1016.1
20260906072526 73 180 8.0 15.0 0.00 0.00 0.00 74 1016.0
20260906072024 73 173 9.0 15.0 0.00 0.00 0.00 74 1016.0
20260906071547 73 173 10.0 15.0 0.00 0.00 0.00 74 1016.1
20260906071024 74 161 10.0 15.0 0.00 0.00 0.00 73 1016.1
20260906070524 74 150 10.0 15.0 0.00 0.00 0.00 73 1016.2
20260906070053 74 159 10.0 15.0 0.00 0.00 0.00 73 1016.3
20260906065524 74 173 9.0 14.0 0.00 0.00 0.00 73 1016.3
20260906065025 74 151 8.0 12.0 0.00 0.00 0.00 73 1016.2
20260906064546 74 162 8.0 12.0 0.00 0.00 0.00 73 1016.2
20260906064028 74 161 7.0 12.0 0.00 0.00 0.00 72 1016.0
20260906063524 74 157 9.0 11.0 0.00 0.00 0.00 72 1016.1
20260906063050 74 155 7.0 11.0 0.00 0.00 0.00 72 1016.1
20260906062528 74 151 6.0 12.0 0.00 0.00 0.00 72 1016.2
20260906062023 74 159 8.0 15.0 0.00 0.00 0.00 72 1016.1
20260906061545 74 146 10.0 15.0 0.00 0.00 0.00 72 1016.0
20260906061025 74 169 11.0 16.0 0.00 0.00 0.00 72 1015.9
20260906060528 74 163 10.0 16.0 0.00 0.00 0.00 72 1015.7
20260906060054 74 169 9.0 15.0 0.00 0.00 0.00 72 1015.6
20260906055522 74 156 6.0 9.0 0.00 0.00 0.00 72 1015.6
20260906055024 74 140 6.0 9.0 0.00 0.00 0.00 72 1015.6
20260906054549 74 128 6.0 11.0 0.00 0.00 0.00 72 1015.5
20260906054025 74 138 7.0 11.0 0.00 0.00 0.00 72 1015.4
20260906053533 74 148 8.0 11.0 0.00 0.00 0.00 72 1015.4
20260906053043 74 155 8.0 12.0 0.00 0.00 0.00 72 1015.3
20260906052523 74 157 8.0 14.0 0.00 0.00 0.00 72 1015.3
20260906052026 74 152 8.0 14.0 0.00 0.00 0.00 72 1015.3
20260906051558 74 163 8.0 12.0 0.00 0.00 0.00 71 1015.3
20260906051027 74 146 8.0 12.0 0.00 0.00 0.00 71 1015.3
20260906050525 74 172 8.0 12.0 0.00 0.00 0.00 70 1015.3
20260906050056 74 154 9.0 12.0 0.00 0.00 0.00 70 1015.4
20260906045525 75 154 9.0 13.0 0.00 0.00 0.00 70 1015.6
20260906045023 75 160 9.0 13.0 0.00 0.00 0.00 70 1015.6
20260906044551 75 159 9.0 13.0 0.00 0.00 0.00 69 1015.7
20260906044025 75 178 9.0 16.0 0.00 0.00 0.00 69 1015.7
20260906043523 75 181 9.0 16.0 0.00 0.00 0.00 68 1015.7
20260906043051 76 168 11.0 16.0 0.00 0.00 0.00 68 1015.7
20260906042525 76 169 11.0 17.0 0.00 0.00 0.00 67 1015.7
20260906042024 76 165 11.0 17.0 0.00 0.00 0.00 67 1015.7
20260906041545 76 176 10.0 16.0 0.00 0.00 0.00 67 1015.7
20260906041028 76 176 11.0 16.0 0.00 0.00 0.00 67 1015.8
20260906040524 76 163 11.0 16.0 0.00 0.00 0.00 66 1015.8
20260906040056 77 159 10.0 19.0 0.00 0.00 0.00 66 1015.8
20260906035525 77 167 12.0 19.0 0.00 0.00 0.00 65 1015.8
20260906035025 77 182 12.0 19.0 0.00 0.00 0.00 65 1015.7
20260906034544 78 157 13.0 20.0 0.00 0.00 0.00 64 1015.8
20260906034024 78 157 14.0 20.0 0.00 0.00 0.00 64 1015.7
20260906033523 78 159 13.0 19.0 0.00 0.00 0.00 63 1015.7
20260906033052 78 163 13.0 19.0 0.00 0.00 0.00 63 1015.7
20260906032522 78 160 14.0 19.0 0.00 0.00 0.00 64 1015.8
20260906032023 78 146 10.0 14.0 0.00 0.00 0.00 63 1015.7
20260906031547 78 157 8.0 12.0 0.00 0.00 0.00 62 1015.7
20260906031024 78 142 9.0 12.0 0.00 0.00 0.00 62 1015.6
20260906030524 79 158 8.0 13.0 0.00 0.00 0.00 61 1015.5
20260906030046 79 175 9.0 13.0 0.00 0.00 0.00 60 1015.6
20260906025524 79 154 9.0 13.0 0.00 0.00 0.00 60 1015.6
20260906025024 80 136 9.0 13.0 0.00 0.00 0.00 60 1015.5
20260906024558 80 173 10.0 14.0 0.00 0.00 0.00 59 1015.3
20260906024023 80 166 10.0 14.0 0.00 0.00 0.00 59 1015.4
20260906023523 81 157 9.0 12.0 0.00 0.00 0.00 58 1015.4
20260906023046 81 164 10.0 13.0 0.00 0.00 0.00 57 1015.2
20260906022526 81 160 9.0 14.0 0.00 0.00 0.00 57 1015.1
20260906022025 82 160 10.0 14.0 0.00 0.00 0.00 56 1015.2
20260906021547 82 170 8.0 12.0 0.00 0.00 0.00 55 1015.1
20260906021023 82 158 9.0 14.0 0.00 0.00 0.00 55 1014.9
20260906020524 81 157 9.0 14.0 0.00 0.00 0.00 55 1014.8
20260906020052 81 150 7.0 10.0 0.00 0.00 0.00 55 1014.9
20260906015523 82 146 7.0 9.0 0.00 0.00 0.00 54 1014.8
20260906015023 82 138 6.0 8.0 0.00 0.00 0.00 53 1014.9
20260906014625 83 138 6.0 9.0 0.00 0.00 0.00 52 1014.9
20260906014022 84 137 5.0 9.0 0.00 0.00 0.00 51 1015.0
20260906013524 84 143 7.0 10.0 0.00 0.00 0.00 50 1015.0
20260906013049 85 148 6.0 10.0 0.00 0.00 0.00 50 1015.0
20260906012524 85 146 7.0 12.0 0.00 0.00 0.00 50 1015.0
20260906012023 85 143 8.0 13.0 0.00 0.00 0.00 49 1015.0
20260906011545 86 146 9.0 13.0 0.00 0.00 0.00 49 1015.0
20260906011024 86 144 6.0 12.0 0.00 0.00 0.00 48 1015.1
20260906010523 86 147 7.0 12.0 0.00 0.00 0.00 48 1015.1
20260906010054 87 130 8.0 12.0 0.00 0.00 0.00 47 1015.2
20260906005523 87 126 8.0 11.0 0.00 0.00 0.00 47 1015.0
20260906005025 87 140 7.0 14.0 0.00 0.00 0.00 46 1015.0
20260906004556 88 142 10.0 15.0 0.00 0.00 0.00 46 1014.9
20260906004025 88 145 11.0 19.0 0.00 0.00 0.00 46 1014.9
20260906003524 88 147 13.0 19.0 0.00 0.00 0.00 46 1014.6
20260906003059 88 142 11.0 18.0 0.00 0.00 0.00 46 1014.4
20260906002523 89 134 13.0 17.0 0.00 0.00 0.00 46 1014.3
20260906002025 89 130 12.0 21.0 0.00 0.00 0.00 46 1014.2
20260906001546 89 149 12.0 21.0 0.00 0.00 0.00 45 1014.1
20260906001023 89 150 14.0 18.0 0.00 0.00 0.00 45 1014.0
20260906000524 89 154 12.0 21.0 0.00 0.00 0.00 45 1014.0
20260906000052 89 149 14.0 21.0 0.00 0.00 0.00 44 1014.1
20260905235523 89 153 14.0 21.0 0.00 0.00 0.00 44 1014.1
20260905235027 89 164 16.0 23.0 0.00 0.00 0.00 43 1014.1
20260905234549 89 158 16.0 23.0 0.00 0.00 0.00 42 1014.2
20260905234026 90 160 17.0 23.0 0.00 0.00 0.00 41 1014.2
20260905233528 90 184 14.0 27.0 0.00 0.00 0.00 41 1014.0
20260905233049 90 166 19.0 28.0 0.00 0.00 0.00 40 1013.9
20260905232525 90 173 21.0 28.0 0.00 0.00 0.00 40 1013.9
20260905232024 91 175 17.0 29.0 0.00 0.00 0.00 38 1013.9
20260905231546 91 154 22.0 29.0 0.00 0.00 0.00 38 1013.9
20260905231024 91 162 18.0 31.0 0.00 0.00 0.00 37 1013.9
20260905230523 91 151 21.0 31.0 0.00 0.00 0.00 38 1013.8
20260905230054 91 172 19.0 28.0 0.00 0.00 0.00 38 1013.7
20260905225523 91 144 20.0 29.0 0.00 0.00 0.00 39 1013.7
20260905225024 92 145 18.0 29.0 0.00 0.00 0.00 38 1013.7
20260905224546 92 165 19.0 27.0 0.00 0.00 0.00 38 1013.8
20260905224024 91 159 19.0 28.0 0.00 0.00 0.00 38 1013.8
20260905223525 92 164 17.0 30.0 0.00 0.00 0.00 39 1013.8
20260905223046 91 164 20.0 30.0 0.00 0.00 0.00 39 1013.8
20260905222524 91 135 18.0 29.0 0.00 0.00 0.00 39 1013.8
20260905222021 91 169 21.0 29.0 0.00 0.00 0.00 39 1013.7
20260905221611 91 156 22.0 30.0 0.00 0.00 0.00 40 1013.7
20260905221024 91 151 22.0 30.0 0.00 0.00 0.00 41 1013.8
20260905220523 91 150 21.0 30.0 0.00 0.00 0.00 42 1013.8
20260905220051 91 159 19.0 31.0 0.00 0.00 0.00 43 1013.9
20260905215524 91 154 21.0 31.0 0.00 0.00 0.00 42 1014.0
20260905215025 91 157 20.0 27.0 0.00 0.00 0.00 42 1014.0
20260905214548 91 159 17.0 30.0 0.00 0.00 0.00 41 1014.0
20260905214024 91 178 19.0 30.0 0.00 0.00 0.00 41 1014.1
20260905213522 91 149 21.0 33.0 0.00 0.00 0.00 40 1014.2
20260905213104 91 224 21.0 33.0 0.00 0.00 0.00 42 1014.3
20260905212524 91 164 21.0 29.0 0.00 0.00 0.00 42 1014.4
20260905212025 91 156 18.0 28.0 0.00 0.00 0.00 42 1014.5
20260905211547 92 360 20.0 28.0 0.00 0.00 0.00 41 1014.5
20260905211024 93 360 22.0 28.0 0.00 0.00 0.00 39 1014.6
20260905210525 93 360 19.0 30.0 0.00 0.00 0.00 40 1014.4
20260905210051 94 148 21.0 32.0 0.00 0.00 0.00 39 1014.5
20260905205526 94 159 19.0 32.0 0.00 0.00 0.00 40 1014.4
20260905205026 94 165 22.0 30.0 0.00 0.00 0.00 39 1014.6
20260905204546 94 147 19.0 27.0 0.00 0.00 0.00 40 1014.7
20260905204024 93 360 19.0 27.0 0.00 0.00 0.00 42 1014.7